Theta_e
339 339 338 338 338 337 337 337 338 337 338 339 339 341 342 343 343 343 341 341 341 342 341 340 339 338 337 335 331 330 329 329 328 327 329 330 330 330 329 328 329 330
337 338 339 339 339 339 340 340 339 339 339 340 341 342 342 342 342 341 341 341 341 338 338 338 338 335 333 332 329 328 327 326 325 328 328 329 329 329 328 329 329 329
337 336 336 336 337 338 339 340 340 340 340 341 341 341 340 341 340 340 341 341 340 339 337 336 335 334 333 331 327 327 327 326 326 328 329 328 328 327 328 328 328 328
338 338 337 337 337 336 337 337 337 338 339 339 339 338 337 338 340 339 340 340 339 338 336 334 333 332 331 329 326 326 326 325 325 326 327 327 324 324 326 327 328 328
336 336 336 337 336 336 336 334 333 334 334 336 340 340 339 338 339 338 338 338 336 334 334 333 332 331 328 327 326 324 325 324 322 323 324 324 325 325 326 327 327 326
335 333 334 334 335 337 335 334 334 334 334 334 336 338 336 336 336 336 336 337 337 333 332 332 331 329 328 327 326 323 323 323 324 324 320 319 322 326 328 327 326 326
332 333 333 332 333 334 334 335 336 335 335 335 334 338 336 335 335 334 334 334 334 333 332 331 331 329 328 327 323 321 320 320 321 323 323 322 323 327 329 328 327 326
332 333 331 332 331 332 331 331 331 333 334 333 332 332 333 333 333 333 333 333 332 331 331 331 330 329 328 326 324 322 320 320 320 321 322 322 326 325 324 325 324 324
329 330 329 329 329 330 330 329 330 331 332 331 331 331 331 331 331 331 331 332 331 331 330 330 329 329 329 326 323 323 321 321 321 322 324 322 323 323 324 324 324 323
327 327 328 327 326 327 327 329 329 330 330 330 330 332 330 331 331 329 328 329 329 328 330 330 329 328 329 327 324 321 320 318 319 323 324 322 322 322 322 322 322 322
328 327 327 325 325 326 326 327 328 328 329 327 327 326 326 328 330 330 329 327 327 326 326 327 329 329 327 327 327 325 322 321 321 320 322 323 322 322 324 322 322 322
325 325 327 326 325 325 326 326 326 324 324 325 323 322 323 323 323 323 323 322 323 324 325 324 325 326 328 327 325 325 325 324 324 323 323 323 322 321 321 321 321 321
322 322 324 327 327 326 327 325 325 324 322 321 323 321 321 320 320 319 320 320 319 320 321 322 322 322 324 326 325 325 323 322 322 322 323 321 322 321 322 321 322 322
320 321 322 322 324 326 324 326 325 324 323 325 322 320 320 319 318 318 319 318 319 319 319 320 320 320 322 320 320 322 322 321 321 320 320 322 321 321 321 320 321 321
318 318 320 321 320 319 321 321 322 322 322 323 322 319 320 319 318 318 317 317 317 317 317 319 320 320 319 317 315 315 315 316 315 316 317 319 319 320 320 320 320 321
315 316 316 316 316 318 319 319 319 320 320 319 317 317 317 317 317 317 316 316 315 315 316 317 318 319 316 312 312 312 313 312 312 312 311 311 313 315 317 319 319 319
314 315 315 314 315 316 318 316 315 317 317 317 318 318 317 315 315 313 314 315 314 313 314 315 316 317 309 300 301 306 311 310 307 307 307 308 309 311 312 314 316 316
312 312 312 314 314 313 314 315 316 316 315 315 316 316 317 316 315 314 314 314 314 313 313 314 314 315 302 302 301 300 306 312 311 308 307 306 306 306 307 309 312 313
311 311 311 311 312 312 313 314 315 313 313 314 314 318 318 315 313 313 313 314 313 311 311 312 312 310 302 303 302 301 300 308 308 307 306 306 305 305 305 305 306 308
310 310 309 310 311 311 312 312 312 313 317 315 314 314 313 312 313 312 312 311 311 310 310 310 311 312 302 302 301 299 298 301 309 308 307 306 306 306 306 306 306 306
309 309 308 309 310 309 310 310 310 313 314 314 313 313 312 311 310 310 310 310 310 309 309 309 309 301 298 298 298 297 296 298 308 308 307 306 306 306 306 307 306 307
308 308 308 308 309 309 309 308 310 311 310 311 311 311 311 311 310 310 309 308 309 309 308 307 310 299 298 297 296 296 296 306 308 307 306 305 305 305 305 306 306 306
308 307 308 308 308 308 308 309 309 310 310 310 309 309 309 308 309 309 309 308 308 308 308 307 307 303 299 297 296 295 298 306 306 305 304 304 304 304 305 305 305 305
308 308 308 308 308 308 309 309 309 309 311 311 310 309 308 308 308 307 307 307 307 307 307 306 305 305 297 296 297 295 303 305 304 303 303 303 303 304 304 304 304 307
309 309 308 308 307 308 309 309 309 310 311 312 310 308 308 308 307 305 305 306 306 307 309 306 305 305 298 296 296 296 302 305 303 302 301 302 302 302 303 303 303 305
309 309 309 308 307 308 308 309 310 309 308 308 308 306 305 305 305 305 304 304 306 306 306 306 306 305 304 295 296 296 297 303 303 301 300 300 301 301 301 302 303 303
Wind_Speed
3 2 2 2 1 2 3 4 4 4 4 4 5 5 4 4 5 3 5 6 6 6 6 7 7 7 5 1 2 5 6 7 5 5 4 4 4 5 6 5 5 5
4 4 4 3 3 2 2 3 5 6 6 5 5 5 5 5 3 3 4 4 3 5 4 5 6 7 7 7 6 6 4 3 4 3 3 5 5 5 5 4 4 6
4 4 4 5 6 7 6 5 4 5 5 6 6 6 6 6 6 5 4 2 2 3 3 3 5 6 8 8 8 7 6 5 5 5 5 5 3 5 6 7 7 8
6 5 4 5 5 7 7 7 6 6 6 6 6 5 4 5 5 5 3 1 1 2 3 5 5 6 7 8 9 8 8 6 4 3 3 3 6 8 8 7 7 7
5 5 5 4 4 5 5 6 7 8 8 8 5 4 4 4 3 4 3 2 2 3 3 3 4 4 6 7 8 8 7 6 5 5 5 7 7 9 9 9 8 8
5 5 5 4 4 2 3 4 4 5 6 7 7 3 5 6 5 5 4 2 2 4 4 4 4 5 5 5 6 7 7 6 6 7 10 12 12 10 7 6 6 7
4 4 4 5 5 5 4 3 3 3 3 3 5 2 2 4 4 5 6 5 5 4 4 5 5 6 6 5 6 7 6 7 8 9 11 11 10 8 5 3 3 6
3 2 3 4 5 5 5 5 6 5 4 4 4 5 4 4 5 5 5 6 6 7 6 6 6 7 7 8 8 8 9 8 9 11 11 10 6 3 6 6 9 11
3 3 3 4 5 4 5 5 6 6 6 5 4 4 5 5 6 6 6 6 7 6 7 7 6 7 7 8 9 9 8 8 9 10 9 8 8 8 9 10 10 10
3 4 3 4 5 4 5 6 6 5 5 6 6 4 4 4 4 6 7 7 7 6 6 6 7 7 7 8 9 9 9 11 10 8 8 8 9 9 9 10 12 11
2 2 3 4 4 4 5 5 5 6 6 7 7 7 8 7 4 4 5 6 6 7 7 6 7 6 7 7 7 7 9 9 9 9 8 8 9 10 13 12 11 8
3 3 2 2 3 3 4 4 5 6 6 6 8 8 8 8 9 9 9 9 10 10 8 8 7 6 6 7 8 9 8 8 6 6 8 11 11 11 12 10 10 10
4 4 4 1 2 2 2 3 2 3 5 5 5 6 6 5 6 8 7 8 9 10 11 10 8 8 6 5 6 7 8 7 6 8 9 7 10 8 7 7 6 6
4 4 4 4 3 2 2 2 1 2 3 2 3 5 6 6 6 7 7 8 8 8 9 8 9 10 9 8 8 8 8 6 7 7 8 6 7 9 9 6 5 8
5 5 5 4 4 4 4 4 3 3 3 2 2 4 5 6 6 7 8 8 9 10 10 8 7 6 5 6 6 7 7 7 8 10 10 9 8 8 6 8 7 9
7 6 6 6 6 5 4 4 5 4 4 4 4 5 6 7 7 7 8 7 8 8 9 9 7 6 7 10 8 5 6 6 7 8 9 9 10 10 8 7 6 6
7 6 6 7 6 5 4 6 6 4 5 5 4 4 4 5 4 6 6 6 8 7 7 5 5 4 8 7 8 8 5 6 6 7 8 10 11 10 10 9 8 7
9 9 8 7 7 7 6 4 4 4 4 4 3 3 3 3 5 4 4 4 4 5 5 5 5 9 9 5 6 8 5 3 2 3 5 6 7 10 11 11 11 9
9 10 10 9 8 8 7 6 3 5 6 5 4 2 2 3 4 4 4 3 4 6 6 5 5 4 5 2 3 4 7 6 6 6 6 6 6 8 8 10 11 10
9 10 10 10 9 9 9 8 4 4 2 3 4 4 4 5 4 5 5 5 5 5 6 6 6 6 4 3 1 1 1 1 2 4 5 7 8 8 8 9 8 9
11 11 12 12 13 12 9 9 9 5 3 3 3 3 4 4 5 7 6 6 6 7 7 6 6 8 2 2 4 5 7 5 4 4 5 5 6 8 9 9 9 9
11 11 11 12 12 12 13 13 7 5 7 6 5 4 5 5 5 5 7 7 6 6 6 7 3 6 1 4 8 8 8 4 4 5 5 6 7 7 8 8 9 9
14 14 13 13 12 12 12 10 10 11 10 11 10 10 7 5 5 5 5 5 6 6 5 5 6 9 8 3 5 6 3 4 4 6 7 8 9 8 9 9 9 10
11 12 12 12 11 10 10 9 8 6 4 3 3 3 4 5 5 6 6 6 6 6 6 6 7 10 8 9 4 1 3 3 4 5 7 7 8 8 7 8 10 17
9 8 9 9 9 8 7 6 4 5 3 3 3 4 5 5 7 6 6 6 7 7 9 9 7 6 7 5 6 3 1 3 5 6 7 7 7 9 7 7 8 8
8 9 7 8 9 8 7 6 5 5 5 5 6 6 6 7 7 7 8 7 6 7 8 7 4 6 8 12 11 8 3 4 5 6 8 9 8 9 9 8 8 8
Wind_Direction
1 350 332 335 247 240 288 304 302 294 284 279 274 267 272 286 272 259 244 237 235 221 218 208 212 224 240 285 208 217 208 199 194 201 192 179 193 199 204 205 225 232
4 1 344 317 315 306 308 312 308 305 305 302 299 313 311 304 295 277 273 265 208 196 202 198 199 198 207 218 221 235 241 224 223 246 246 219 199 200 218 217 222 232
1 10 2 359 348 341 335 329 318 312 314 315 318 321 321 324 317 308 291 254 179 189 208 204 201 201 200 198 194 209 218 205 216 229 232 239 259 249 220 212 207 221
3 356 351 354 359 351 350 340 343 345 335 331 333 319 316 314 313 299 283 307 225 193 204 237 227 212 206 204 200 207 207 207 211 215 228 229 227 246 248 237 217 206
21 10 15 5 4 358 351 343 341 341 336 333 324 333 315 311 306 296 299 226 219 226 212 225 225 228 214 209 206 211 209 215 218 211 228 247 229 228 230 225 222 218
28 18 11 4 356 354 331 324 317 315 323 326 331 354 333 329 319 307 301 284 201 203 224 223 223 228 227 224 210 212 211 214 222 203 207 224 230 227 225 220 227 223
23 21 2 5 348 340 329 323 314 315 312 312 314 324 270 293 297 290 292 298 291 270 243 226 216 226 227 226 211 217 222 227 235 231 218 221 231 231 206 213 289 269
25 32 348 9 342 341 333 341 335 326 321 315 321 322 315 308 299 300 305 304 307 303 281 245 223 223 222 219 221 216 219 222 232 237 231 229 233 199 221 204 213 230
19 21 338 20 328 347 328 337 331 330 328 324 320 320 321 315 315 308 302 292 278 262 274 279 258 236 230 223 220 230 232 230 230 235 233 230 229 233 227 220 210 212
28 359 344 14 340 339 329 335 332 327 325 322 323 315 291 279 289 304 305 304 303 295 268 261 268 262 247 241 231 217 226 238 239 237 240 234 232 241 248 237 232 219
20 340 356 8 339 338 341 334 336 337 337 340 334 331 339 332 315 291 290 294 297 298 296 267 251 267 286 302 310 281 243 237 243 242 233 227 231 236 243 243 238 231
356 332 339 11 335 339 333 333 354 347 342 342 350 341 345 346 344 354 351 342 325 309 300 311 316 299 255 237 247 271 301 293 292 273 253 238 227 232 247 257 253 240
335 332 315 307 296 279 295 327 350 338 330 336 336 337 330 335 342 337 340 337 339 342 338 333 333 340 344 358 330 306 288 304 297 298 286 299 295 277 266 264 310 324
324 313 319 307 270 301 305 270 269 296 298 304 335 322 320 334 345 345 347 340 340 336 338 338 352 354 36 23 22 10 5 353 346 347 342 332 315 317 335 2 328 301
323 324 306 310 332 313 293 300 290 248 243 298 314 304 314 335 344 340 334 335 335 336 334 340 355 8 50 26 22 16 9 1 354 349 340 327 323 314 316 313 304 283
318 315 323 328 307 309 325 321 319 356 16 354 341 347 13 15 5 349 336 337 339 343 339 338 344 346 52 50 44 32 9 2 355 346 335 329 326 325 318 306 295 297
307 314 317 305 315 317 320 325 336 337 335 339 345 3 8 5 345 321 329 336 333 329 327 331 328 343 23 36 50 51 28 11 3 348 344 337 330 323 312 299 297 294
324 318 312 315 310 310 313 322 318 325 331 332 345 352 357 329 304 325 332 327 316 315 313 318 327 323 338 17 27 19 23 2 343 342 337 330 327 325 322 318 311 309
327 323 320 315 314 316 315 297 315 339 331 331 317 316 298 292 320 316 302 299 305 306 311 310 300 349 15 10 347 1 354 0 337 338 329 318 310 301 304 309 313 315
318 317 314 317 323 326 325 326 336 320 340 353 346 355 347 333 318 309 310 314 321 317 312 318 325 347 306 236 251 307 358 295 304 308 305 308 306 303 291 289 297 300
330 330 331 332 333 328 320 324 326 319 332 22 350 333 321 318 323 320 318 322 323 318 315 330 337 31 317 286 261 239 238 214 259 266 277 279 289 294 296 289 274 266
328 333 327 326 327 329 327 318 323 349 340 336 325 322 325 326 318 320 324 316 314 314 316 313 325 35 139 241 244 244 253 271 276 277 271 284 293 299 296 301 304 301
333 332 328 323 322 319 315 323 347 357 1 0 352 347 337 329 321 307 303 306 311 313 318 333 331 334 327 321 287 287 309 274 295 297 301 307 307 308 308 303 303 304
329 327 327 332 342 345 355 360 6 357 5 345 318 315 321 325 324 330 331 336 334 332 338 329 327 314 6 70 81 242 223 299 297 298 295 298 302 300 302 305 299 308
330 337 348 347 336 341 346 344 340 331 318 313 318 320 315 313 326 328 329 327 325 319 319 312 297 305 84 48 65 15 254 296 305 315 305 299 298 293 292 297 305 313
341 334 342 340 331 336 338 331 324 329 352 348 332 331 334 335 335 333 327 314 308 300 288 287 317 9 12 26 27 20 272 296 321 321 315 314 313 313 313 308 303 300